{"data":{"norad_id":65208,"intl_designator":"2025-176L","name":"STARLINK-34841","alt_names":[],"object_type":"PAYLOAD","status":"ACTIVE","operator":null,"country":"US","launch_date":"2025-08-14","launch_site_code":"AFETR","launch_vehicle":null,"mission":null,"orbit_class":"UNKNOWN","rcs_meters":null,"size_class":null,"mass_kg":null,"dimensions":null,"purposes":["comms"],"wikipedia_slug":null,"has_3d_model":false,"image_url":null,"decayed_at":null,"tle_current":{"epoch":"2026-09-20T11:21:32.954112Z","epoch_age_seconds":123250,"freshness":"FRESH","line1":"1 65208U 25176L   26263.47329808  .00019971  00000+0  60058-3 0  9990","line2":"2 65208  53.1596 323.6617 0001132  93.6625 266.4508 15.34402729 63005","mean_motion":15.34402729,"eccentricity":0.0001132,"inclination_deg":53.1596,"raan_deg":323.6617,"arg_perigee_deg":93.6625,"mean_anomaly_deg":266.4508,"bstar":0.00060058,"rev_number":6300,"period_min":93.847591169137,"perigee_km":461.92074685901,"apogee_km":463.46951125302,"semimajor_km":6840.832129056,"source":"CELESTRAK","updated_at":"2026-09-21T09:00:35.535262Z"}}}